www.pogodaiklimat.ru

Погода и климат >> Архив погоды >> Беларусь >> Минск


АРХИВ ПОГОДЫ в Минске

Время (UTC), дата Ветер
(напр.,м/с)
 
Видим.   Явления Облачность Т
(С)
Тd
(С)
f
(%)
Тe
(С)
Тes
(С)
Комфортность P
(гПа)
Po
(гПа)
Тmin
(С)
Tmax
(С)
R
(мм)
R24
(мм)
S
(см)
21 16.07 ЮВ 1 12 км слаб. дождь 10/10 400 м
[Sc]
+12.8 +12.0 95 +13 +13 холодно 1006.9 979.7
00 17.07 Ю 2 10 км {дождь} 10/10 360 м
[Sc]
+12.8 +12.2 96 +12 +12 прохладно 1005.8 978.7
03 17.07 З 2 12 км 10/10 360 м
[Sc]
+12.7 +11.6 93 +12 +12 прохладно 1005.3 978.2
06 17.07 ЮЗ 3 15 км 8/4 600 м
[Sc Ac trans]
+14.3 +11.3 82 +13 +15 холодно 1005.1 978.1 +12.6 3
09 17.07 З 4 16 км 8/8 660 м
[Sc]
+16.0 +10.3 69 +15 +17 холодно 1005.0 978.2
12 17.07 СЗ 4 19 км {ливн. осадки} 8/8 720 м
[Sc]
+17.0 +10.6 66 +17 +18 холодно 1005.1 978.4
15 17.07 СЗ 3 15 км 8/6 1020 м
[Sc Ac trans]
+17.1 +9.8 62 +17 +18 холодно 1005.2 978.5
18 17.07 СЗ 1 15 км 4/3 1000 м
[Sc Ac trans]
+14.7 +11.3 80 +15 +15 холодно 1006.2 979.2 +17.9 0.0
21 17.07 СЗ 2 15 км 8/8 720 м
[Sc]
+13.5 +11.6 88 +13 +13 холодно 1006.6 979.5
00 18.07 СЗ 2 12 км {ливн. осадки} 8/6 570 м
[Sc Ac trans]
+12.5 +11.7 95 +11 +11 прохладно 1006.5 979.3
03 18.07 СЗ 2 10 км 10/10 150 м
[St]
+13.3 +12.5 95 +12 +12 прохладно 1006.3 979.2
06 18.07 СЗ 3 10 км 10/10 150 м
[St]
+14.2 +12.6 90 +13 +13 холодно 1006.8 979.8 +12.5 0.0
09 18.07 З 2 10 км слаб. дождь 10/10 480 м
[Sc]
+15.3 +14.2 93 +15 +15 холодно 1006.9 980.0
12 18.07 З 3 10 км в посл. час ливневой дождь 9/8 1230 м
[Cb calv Ac trans]
+17.4 +14.5 83 +17 +19 холодно 1006.8 980.1
15 18.07 СЗ 4
{10}
12 км в посл. час ливневой дождь 8/8 1410 м
[Cb calv Ac trans]
+19.1 +12.6 66 +20 +21 по сезону 1007.1 980.5
18 18.07 З 2 13 км {ливн. осадки} 8/6 1200 м
[Sc Ac trans]
+17.0 +12.9 77 +17 +17 прохладно 1008.3 981.5 +19.7 4
21 18.07 З 1 12 км 4/0
[Ac trans]
+15.3 +12.6 84 +16 +16 по сезону 1009.3 982.3
00 19.07 З 2 13 км ясно +14.1 +11.3 83 +14 +14 по сезону 1010.2 983.1
03 19.07 З 2 13 км ясно +12.9 +10.4 85 +12 +12 прохладно 1011.4 984.1
06 19.07 З 3 15 км 3/0
[Ci fib]
+17.5 +12.4 72 +18 +23 по сезону 1011.4 984.6 +12.7
09 19.07 СЗ 5 20 км 3/3 1050 м
[Cu hum]
+21.2 +9.8 48 +23 +28 комфорт 1011.6 985.1
12 19.07 СЗ 4 20 км 8/8 1050 м
[Cu med, cong]
+22.3 +9.8 45 +24 +26 комфорт 1011.7 985.3
15 19.07 СЗ 3 15 км 6/6 1050 м
[Cu hum]
+22.3 +10.8 48 +24 +26 комфорт 1011.8 985.4
18 19.07 СЗ 2 20 км ясно +20.6 +9.2 48 +23 +23 комфорт 1012.6 986.0 +23.1
21 19.07 СЗ 1 15 км ясно +11.9 +10.5 91 +12 +12 холодно 1014.5 987.0
00 20.07 штиль 0 15 км ясно +9.9 +9.1 95 +9 +9 холодно 1015.2 987.5
03 20.07 штиль 0 17 км ясно +9.7 +9.2 97 +9 +9 очень
холодно
1015.9 988.2
06 20.07 СЗ 2 25 км ясно +19.3 +11.3 60 +21 +27 комфорт 1015.9 989.1 +9.1
09 20.07 СЗ 3 23 км 3/3 600 м
[Cu hum]
+22.6 +9.7 44 +24 +33 комфорт 1016.0 989.5
12 20.07 З 4 22 км 6/6 1320 м
[Cu hum]
+24.3 +10.2 41 +25 +29 комфорт 1016.0 989.6
15 20.07 СЗ 3 25 км 4/4 1380 м
[Cu hum]
+26.0 +10.6 38 +27 +29 жарко 1015.4 989.2
18 20.07 СЗ 1 21 км 3/0
[Ac trans]
+20.6 +13.3 63 +24 +24 комфорт 1016.1 989.4 +26.3
21 20.07 СВ 1 15 км ясно +14.6 +12.8 89 +15 +15 прохладно 1017.6 990.3
00 21.07 штиль 0 14 км ясно +12.5 +11.4 93 +12 +12 прохладно 1018.2 990.7
03 21.07 СВ 1 15 км ясно +11.5 +10.9 96 +11 +11 холодно 1018.2 990.6
06 21.07 В 1 15 км ясно +22.0 +13.6 59 +25 +32 комфорт 1017.7 991.1 +11.1
09 21.07 З 2 18 км 6/6 1000 м
[Cu med, cong]
+26.2 +11.5 40 +27 +33 жарко 1017.0 990.8
12 21.07 Ю 2 14 км 8/8 600 м
[Cu Sc]
+27.4 +11.8 38 +29 +31 жарко 1016.4 990.3
15 21.07 В 2 15 км 6/4 1000 м
[Cu med, cong Ac trans]
+27.9 +11.9 37 +29 +31 жарко 1015.3 989.3
18 21.07 штиль 0 19 км 8/0
[Ac trans Ci fib]
+23.0 +15.1 61 +27 +27 душно 1015.5 989.1 +29.0
21 21.07 СВ 1 18 км 6/0
[Ci fib]
+17.3 +14.2 82 +18 +18 по сезону 1016.2 989.2
00 22.07 штиль 0 12 км 4/0
[Ac trans]
+15.1 +13.6 91 +15 +15 по сезону 1015.7 988.5
03 22.07 С 2 10 км слаб. дождь 10/8 1020 м
[Sc Ac trans]
+17.1 +16.1 94 +17 +17 по сезону 1014.9 988.0
06 22.07 З 1 14 км {ливн. осадки, дождь} 10/0
[Ac trans]
+17.9 +16.8 93 +19 +22 тепло 1015.3 988.4 +14.7 3
09 22.07 СЗ 2 10 км слаб. дождь 10/10 360 м
[Frnb Ns]
+17.8 +16.7 93 +18 +18 прохладно 1015.6 988.7
12 22.07 СЗ 3 10 км в посл. час ливневой дождь 10/8 700 м
[Sc Ac trans]
+18.0 +16.7 92 +18 +19 холодно 1015.5 988.6
15 22.07 СЗ 1 18 км 8/6 1110 м
[Cu hum Ac trans]
+21.3 +16.3 73 +25 +26 комфорт 1014.1 987.6
18 22.07 С 3 1900 м гроза, ливневой дождь 10/10 600 м
[Cb calv]
+16.6 +15.8 95 +16 +16 прохладно 1014.6 987.6 +21.5 16
21 22.07 З 3 10 км гроза, ливневой дождь 10/10 630 м
[Cb calv]
+15.2 +14.4 95 +14 +14 прохладно 1014.6 987.5
00 23.07 СЗ 3 10 км {гроза, ливн. осадки} 10/10 420 м
[Cb cap]
+15.6 +14.6 94 +15 +15 по сезону 1014.1 987.0
03 23.07 З 2 10 км 10/10 400 м
[Sc]
+15.1 +14.1 94 +15 +15 по сезону 1013.3 986.2
06 23.07 З 3 10 км слаб. ливневой дождь 10/10 450 м
[Cb cap]
+15.2 +14.2 94 +14 +14 прохладно 1012.7 985.6 +14.9 9
09 23.07 СЗ 3 8000 м слаб. ливневой дождь 10/10 300 м
[Cb cap]
+15.4 +14.6 95 +15 +15 холодно 1013.0 985.9
12 23.07 СЗ 3 10 км {ливн. осадки} 8/6 500 м
[Sc Ac trans]
+19.2 +17.2 88 +21 +24 комфорт 1012.9 986.2
15 23.07 СЗ 3 10 км {ливн. осадки} 8/5 600 м
[Sc Ac trans]
+20.2 +16.8 81 +23 +25 комфорт 1012.9 986.3
18 23.07 СЗ 2 10 км {ливн. осадки} 8/0
[Ac trans]
+18.3 +15.9 86 +19 +19 по сезону 1013.8 987.0 +20.6 11

 

Местоположение метеостанции Минск (город Минск, Беларусь): широта 53.96 долгота 27.70 высота над уровнем моря 231 м.

В архиве по умолчанию представлена погода в Минске за последнюю неделю. Архивные данные за месяц целиком и за предыдущие месяцы, начиная с января 2011 года, Вы можете получить, выбрав интересующий диапазон дат из раскрывающегося списка и нажав кнопку "Ввод!".


*Определитесь, кто Вы:
робот инопланетянин человек

Внимание! Время в таблицах - всемирное. Для получения местного времени необходимо прибавить поправку, которая равна 3 ч.

Смотрите также архив погоды в соседних городах и на ближайших метеорологических станциях:

Погода в Борисове (Минская область, Беларусь) (63 км)
Погода в Марьиной Горке (Минская область, Беларусь) (63 км)
Погода в Вилейке (Минская область, Беларусь) (77 км)
Погода в Воложине (Минская область, Беларусь) (78 км)
Погода в Столбцах (Минская область, Беларусь) (83 км)
Погода в Березино (Минская область, Беларусь) (86 км)
Погода в Березинском Заповеднике (Минская область, Беларусь) (95 км)
Погода в Докшицах (Витебская область, Беларусь) (102 км)
Погода в Слуцке (Минская область, Беларусь) (104 км)
Погода в Кличеве (Могилевская область, Беларусь) (118 км)

Пояснения к столбцам:

Ветер - указаны скорость ветра в м/с - средняя за 10 мин, порывы в срок и между сроками (в фигурных скобках) и направление, откуда дует ветер: С - северный, СВ - северо-восточный, В - восточный, ЮВ - юго-восточный, Ю - южный, ЮЗ - юго-западный, З - западный, СЗ - северо-западный.
Видимость - горизонтальная дальность видимости в метрах или километрах. При видимости от 1 до 10 км при отсутствии осадков обычно наблюдается дымка, при ухудшении видимости до 1 км и менее - туман. В сухую погоду видимость может ухудшаться дымом, пылью или мглою.
Явления - указаны атмосферные явления, наблюдавшиеся в срок или в последний час перед сроком; фигурными скобками обозначены явления, наблюдавшиеся между сроками (за 1-3 часа до срока); квадратными скобками обозначены град или гололедные отложения с указанием их диаметра в мм.
Облачность - указаны через наклонную черту общая и нижняя облачность в баллах и высота нижней границы облаков в метрах; квадратными скобками обозначены формы облаков: Ci - перистые, Cs - перисто-слоистые, Cc - перисто-кучевые, Ac - высококучевые, As - высокослоистые, Sc - слоисто-кучевые, Ns - слоисто-дождевые, Cu - кучевые, Cb - кучево-дождевые. Подробнее классификацию облаков см. в Атласе облаков (PDF).
T - Температура воздуха - температура, измеренная на высоте 2 м над землей.
Td - Температура точки росы - температура, при понижении до которой содержащийся в воздухе водяной пар достигнет насыщения.
f - Относительная влажность воздуха - влажноcть воздуха, измеренная на высоте 2 м над землей.
Te - Эффективная температура - температура, которую ощущает одетый по сезону человек в тени. Характеристика душности погоды. При расчете учитывается влияние влажности воздуха и скорости ветра на теплоощущения человека.
Tes - Эффективная температура на солнце - температура, которую ощущает человек, с поправкой на солнечный нагрев. Характеристика знойности погоды. Зависит от высоты солнца над горизонтом, облачности и скорости ветра. Ночью, в пасмурную погоду, а также при ветре 12 м/с и более поправка равна нулю.
P - Атмосферное давление - приведенное к уровню моря атмосферное давление.
Po - Атмосферное давление - измеренное на уровне метеостанции атмосферное давление.
Tmin - Минимальная температура - минимум температуры воздуха на высоте 2 м над землей.
Tmax - Максимальная температура - максимум температуры воздуха на высоте 2 м над землей.
R - Количество осадков - Количество выпавших осадков за период времени, мм. При наведении курсора мыши на число - период времени, за который выпало указанное количество осадков.
R24 - Количество осадков - Количество выпавших осадков за 24 часа, мм.
S - Снежный покров - Высота снежного покрова, см. При наведении курсора мыши на число - состояние снежного покрова и степень покрытия местности в баллах.